Kenai, AK

1:22 PM AKDT on May 24, 2017 (GMT -0800)
Kenai Municipal

Weather History for PAEN - February, 2013

Change the Weather History Date:

Wednesday, February 27, 2013

  Actual Average Record
Temperature  
Mean Temperature 30 °F -  
Max Temperature 33 °F 30 °F 47 °F (1968)
Min Temperature 26 °F 11 °F -33 °F (1954)
Degree Days  
Heating Degree Days 36    
Moisture  
Dew Point 20 °F    
Average Humidity 65    
Maximum Humidity 79    
Minimum Humidity 56    
Precipitation  
Precipitation 0.00 in - - ()
Sea Level Pressure  
Sea Level Pressure 29.23 in    
Wind  
Wind Speed 18 mph (NNE)    
Max Wind Speed 24 mph    
Max Gust Speed 30 mph    
Visibility 10 miles    
Events      
Averages and records for this station are not official NWS values.
T = Trace of Precipitation, MM = Missing Value Source: NWS Daily Summary

Daily Weather History Graph

Daily Weather History Graph

Search for Another Location

Airport or City:

Trip Planner

Search our weather history database for the weather conditions in past years. The results will help you decide how hot, cold, wet, or windy it might be!

Date:

Astronomy

Feb. 27, 2013 Rise Set
Actual Time 8:08 AM AKST 6:27 PM AKST
Civil Twilight 7:26 AM AKST 7:10 PM AKST
Nautical Twilight 6:37 AM AKST 7:59 PM AKST
Astronomical Twilight 5:47 AM AKST 8:49 PM AKST
Moon 9:56 PM AKST (2/27) 8:04 AM AKST (2/27)
Length of Visible Light 11h 44m
Length of Day
10h 18m
Waning Gibbous, 95% of the Moon is Illuminated
Feb 27
Waning Gibbous
Mar 4
Last Quarter
Mar 11
New
Mar 19
First Quarter
Mar 27
Full

Hourly Weather History & Observations

Time (AKST) Temp. Windchill Dew Point Humidity Pressure Visibility Wind Dir Wind Speed Gust Speed Precip Events Conditions
12:53 AM 28.0 °F 15.3 °F 18.0 °F 66% 29.26 in 10.0 mi NNE 18.4 mph - N/A   Clear
1:53 AM 28.0 °F 14.6 °F 17.1 °F 63% 29.25 in 10.0 mi NNE 20.7 mph - N/A   Partly Cloudy
3:53 AM 27.0 °F 13.2 °F 17.1 °F 66% 29.23 in 10.0 mi NNE 20.7 mph - N/A   Partly Cloudy
4:53 AM 26.1 °F 14.0 °F 16.0 °F 66% 29.22 in 10.0 mi NNE 15.0 mph - N/A   Partly Cloudy
5:53 AM 27.0 °F 13.9 °F 15.1 °F 61% 29.20 in 10.0 mi North 18.4 mph - N/A   Clear
6:53 AM 28.0 °F 13.6 °F 17.1 °F 63% 29.18 in 10.0 mi NNE 24.2 mph 29.9 mph N/A   Scattered Clouds
7:53 AM 28.4 °F 15.1 °F 15.8 °F 59% 29.18 in 10.0 mi NNE 20.7 mph - N/A   Partly Cloudy
8:53 AM 28.9 °F 17.3 °F 15.1 °F 56% 29.18 in 10.0 mi NNE 16.1 mph - N/A   Scattered Clouds
9:53 AM 28.9 °F 16.9 °F 16.0 °F 58% 29.18 in 10.0 mi NE 17.3 mph - N/A   Overcast
10:53 AM 30.0 °F 20.5 °F 17.1 °F 59% 29.20 in 10.0 mi NE 11.5 mph - N/A   Partly Cloudy
11:53 AM 30.9 °F 19.8 °F 18.0 °F 59% 29.21 in 10.0 mi NE 16.1 mph - N/A   Partly Cloudy
12:53 PM 32.0 °F 22.1 °F 19.9 °F 61% 29.22 in 10.0 mi NNE 13.8 mph - N/A   Scattered Clouds
1:53 PM 33.1 °F 22.6 °F 19.9 °F 59% 29.22 in 10.0 mi NNE 16.1 mph - N/A   Scattered Clouds
2:53 PM 32.0 °F 20.5 °F 21.9 °F 66% 29.23 in 10.0 mi NNE 18.4 mph - N/A   Mostly Cloudy
3:53 PM 32.0 °F 20.8 °F 19.9 °F 61% 29.23 in 10.0 mi NNE 17.3 mph - N/A   Scattered Clouds
4:53 PM 33.1 °F 23.0 °F 21.0 °F 61% 29.23 in 10.0 mi NNE 15.0 mph - N/A   Clear
5:53 PM 30.9 °F 20.2 °F 21.9 °F 69% 29.24 in 10.0 mi NNE 15.0 mph - N/A   Clear
6:53 PM 30.9 °F 20.2 °F 23.0 °F 72% 29.25 in 10.0 mi NNE 15.0 mph - N/A   Overcast
7:53 PM 30.9 °F 19.8 °F 23.0 °F 72% 29.25 in 10.0 mi NNE 16.1 mph - N/A   Overcast
8:53 PM 32.0 °F 21.6 °F 24.1 °F 73% 29.26 in 10.0 mi NNE 15.0 mph - N/A   Overcast
9:53 PM 30.9 °F 19.8 °F 25.0 °F 79% 29.26 in 10.0 mi NNE 16.1 mph - N/A   Overcast
10:53 PM 30.9 °F 20.2 °F 24.1 °F 76% 29.27 in 10.0 mi NNE 15.0 mph - N/A   Overcast
11:53 PM 30.0 °F 19.5 °F 24.1 °F 79% 29.27 in 10.0 mi NNE 13.8 mph - N/A   Overcast